Location: Newark
(35.8833°N, 14.5000°E)
Time: 21:09:58
(UTC+00:00)

BEESAT - Pass Details

Date: 17 November 2019
Orbit: 700 x 709 km, 98.6° (Epoch: 11 December)

Event Time Altitude Azimuth Distance (km) Brightness Sun altitude
Rises 02:15:51 0° 114° (ESE) 3,082 ? -41.2°
Reaches altitude 10° 02:19:44 10° 81° (E) 2,167 ? -40.4°
Maximum altitude 02:21:12 11° 63° (ENE) 2,075 ? -40.1°
Enters shadow 02:22:29 10° 47° (NE) 2,148 ? -39.9°
